Date,TemperatureHighF,TemperatureAvgF,TemperatureLowF,DewpointHighF,DewpointAvgF,DewpointLowF,HumidityHigh,HumidityAvg,HumidityLow,PressureMaxIn,PressureMinIn,WindSpeedMaxMPH,WindSpeedAvgMPH,GustSpeedMaxMPH,PrecipitationSumIn
2013-4-1,53.9,48.6,49.1,51.0,41.5,-99.9,93,88,90,30.18,30.02,8,-49,10,0.00
2013-4-2,53.5,48.1,46.8,50.0,41.9,-99.9,94,88,87,30.23,30.16,6,-42,9,0.00
2013-4-3,62.1,48.9,44.8,54.0,40.2,-99.9,94,84,73,30.17,29.89,6,-57,7,0.00
2013-4-4,55.5,49.1,49.7,54.0,40.7,-99.9,93,87,93,29.90,29.66,15,-63,22,0.00
2013-4-5,52.8,46.3,-90.0,51.0,37.4,-99.9,94,87,93,29.95,29.80,17,-66,27,0.01
2013-4-6,52.5,47.3,47.3,51.0,39.9,-99.9,94,88,91,30.01,29.68,14,-54,18,0.18
2013-4-7,51.9,45.3,44.1,50.0,38.3,-99.9,94,87,84,29.97,29.57,17,-41,24,0.19
2013-4-8,54.7,48.2,42.0,47.0,44.0,40.0,94,86,68,30.30,29.98,7,1,14,0.01
2013-4-9,55.0,48.5,41.6,50.0,45.0,40.0,94,88,77,30.33,30.23,3,0,6,0.01
2013-4-10,54.8,47.9,46.6,51.0,39.8,-99.9,94,85,78,30.34,30.15,9,-41,17,0.01
2013-4-11,53.9,47.7,41.2,48.0,44.1,39.0,94,88,76,30.35,30.16,5,1,10,0.01
2013-4-12,50.0,44.4,37.4,47.0,42.0,36.0,94,91,81,30.17,29.89,8,2,13,0.02
2013-4-13,49.6,44.6,42.3,43.0,35.5,-99.9,91,78,65,30.13,29.98,11,-36,16,0.04
2013-4-14,50.3,45.0,41.6,44.0,41.3,40.0,94,87,74,30.10,29.96,8,1,9,0.03
2013-4-15,52.9,45.8,39.8,45.0,41.8,38.0,94,86,71,30.19,29.96,5,1,11,0.15
2013-4-16,54.5,47.5,41.4,47.0,43.4,40.0,94,86,72,30.41,30.19,8,1,15,0.15
2013-4-17,54.1,47.3,39.5,48.0,43.7,38.0,94,87,75,30.50,30.40,6,1,11,0.00
2013-4-18,55.7,49.7,43.7,49.0,45.6,41.0,94,86,72,30.48,30.34,7,2,11,0.02
2013-4-19,51.6,47.0,48.1,50.0,39.2,-99.9,94,88,93,30.34,30.19,9,-61,13,0.02
2013-4-20,53.2,48.9,45.9,49.0,44.9,-99.9,94,88,81,30.37,30.31,7,-10,10,0.00
2013-4-21,53.3,49.0,44.6,50.0,46.5,43.0,94,91,85,30.31,30.27,7,1,9,0.01
2013-4-22,67.6,52.0,38.9,47.0,41.9,33.0,94,73,30,30.37,30.32,8,1,12,0.01
2013-4-23,62.8,51.1,40.0,47.0,41.5,36.0,94,73,37,30.34,30.17,5,1,11,0.00
2013-4-24,76.0,56.0,40.2,50.0,40.7,33.0,94,64,22,30.19,30.01,11,1,15,0.00
2013-4-25,59.3,51.2,42.2,52.0,47.0,40.0,94,86,72,30.17,30.02,10,1,11,0.00
2013-4-26,63.4,50.5,44.1,53.0,46.0,42.0,94,85,56,30.26,30.16,6,1,9,0.00
2013-4-27,54.8,48.7,41.9,50.0,46.0,40.0,94,90,81,30.32,30.24,8,1,10,0.00
2013-4-28,57.9,53.1,50.4,54.0,49.9,48.0,93,89,73,30.30,30.14,5,1,7,0.03
2013-4-29,56.4,50.6,42.3,51.0,44.4,39.0,94,80,59,30.25,30.13,6,1,11,0.01
2013-4-30,54.6,46.9,40.1,45.0,40.6,37.0,94,80,57,30.45,30.25,11,1,12,0.03